Fairbanks, AK

6:31 PM AKDT on August 17, 2019 (GMT -0800)
Fairbanks International

Weather History for PAFA - December, 1974

Change the Weather History Date:

Saturday, December 7, 1974

  Actual Average Record
Temperature  
Mean Temperature -12 °F -3 °F  
Max Temperature -9 °F 6 °F 52 °F (1934)
Min Temperature -16 °F -10 °F -59 °F (1935)
Degree Days  
Heating Degree Days 78 68  
Month to date heating degree days 473  
Since 1 July heating degree days 4604  
Cooling Degree Days 0 0  
Month to date cooling degree days 0  
Year to date cooling degree days 61  
Moisture  
Dew Point -25 °F    
Average Humidity 55    
Maximum Humidity 61    
Minimum Humidity 52    
Precipitation  
Precipitation 0.00 in 0.02 in 0.16 in (1928)
Month to date precipitation 0.13  
Year to date precipitation 10.30  
Snow  
Snow 0.00 in 0.40 in 3.00 in (1928)
Month to date snowfall 2.6  
Since 1 July snowfall 28.4  
Snow Depth -    
Sea Level Pressure  
Sea Level Pressure 29.46 in    
Wind  
Wind Speed 3 mph (ENE)    
Max Wind Speed 7 mph    
Max Gust Speed -    
Visibility 13 miles    
Events Snow    
T = Trace of Precipitation, MM = Missing Value Source: NWS Daily Summary

Daily Weather History Graph

Daily Weather History Graph

Search for Another Location

Airport or City:

Astronomy

Dec. 07, 1974 Rise Set
Actual Time 9:35 AM AHST 1:50 PM AHST
Civil Twilight 8:16 AM AHST 3:09 PM AHST
Nautical Twilight 7:06 AM AHST 4:19 PM AHST
Astronomical Twilight 6:05 AM AHST 5:19 PM AHST
Moon 1:10 AM AHST (12/7) 12:00 PM AHST (12/7)
Length of Visible Light 6h 53m
Length of Day
4h 14m
Waning Crescent, 34% of the Moon is Illuminated
Dec 7
Waning Crescent
Dec 13
New
Dec 21
First Quarter
Dec 28
Full
Jan 4
Last Quarter

Hourly Weather History & Observations

Time (AHST) Temp. Windchill Dew Point Humidity Pressure Visibility Wind Dir Wind Speed Gust Speed Precip Events Conditions
12:00 AM -9.9 °F - -20.9 °F 59% 29.67 in 10.0 mi Calm Calm - N/A   Partly Cloudy
1:00 AM -9.9 °F - -20.9 °F 59% 29.67 in 15.0 mi Calm Calm - N/A   Scattered Clouds
2:00 AM -9.9 °F -21.5 °F -22.0 °F 55% 29.66 in 15.0 mi WSW 4.6 mph - N/A   Partly Cloudy
3:00 AM -11.9 °F -23.8 °F -24.0 °F 55% 29.66 in 15.0 mi East 4.6 mph - N/A   Partly Cloudy
4:00 AM -11.9 °F - -24.0 °F 55% 29.64 in 15.0 mi Calm Calm - N/A   Clear
5:00 AM -13.0 °F - -26.0 °F 53% 29.63 in 15.0 mi Calm Calm - N/A   Clear
6:00 AM -13.0 °F -25.1 °F -25.1 °F 55% 29.61 in 15.0 mi NNW 4.6 mph - N/A   Clear
7:00 AM -15.0 °F -29.3 °F -27.0 °F 55% 29.59 in 15.0 mi NNW 5.8 mph - N/A   Clear
8:00 AM -16.1 °F - -27.9 °F 55% 29.57 in 20.0 mi Calm Calm - N/A   Partly Cloudy
9:00 AM -15.0 °F -29.3 °F -27.9 °F 52% 29.54 in 60.0 mi NNW 5.8 mph - N/A   Scattered Clouds
10:00 AM -15.0 °F -31.0 °F -27.0 °F 55% 29.50 in 60.0 mi SE 6.9 mph - N/A   Scattered Clouds
11:00 AM -14.1 °F -26.3 °F -25.1 °F 58% 29.50 in 40.0 mi ENE 4.6 mph - N/A   Unknown
12:00 PM -14.1 °F -29.9 °F -26.0 °F 55% 29.46 in 40.0 mi North 6.9 mph - N/A   Partly Cloudy
1:00 PM -13.0 °F -25.1 °F -24.0 °F 58% 29.41 in 20.0 mi NE 4.6 mph - N/A   Mostly Cloudy
2:00 PM -13.0 °F -22.7 °F -26.0 °F 53% 29.40 in 80.0 mi SW 3.5 mph - N/A   Mostly Cloudy
3:00 PM -14.1 °F -26.3 °F -27.0 °F 52% 29.35 in 80.0 mi NE 4.6 mph - N/A   Mostly Cloudy
4:00 PM -15.0 °F -25.0 °F -25.1 °F 61% 29.33 in 15.0 mi South 3.5 mph - N/A   Mostly Cloudy
5:00 PM -16.1 °F - -29.0 °F 52% 29.30 in 10.0 mi Calm Calm - N/A   Mostly Cloudy
6:00 PM -14.1 °F -23.9 °F -26.0 °F 55% 29.28 in 8.0 mi NNE 3.5 mph - N/A   Ice Crystals
7:00 PM -15.0 °F -25.0 °F -27.0 °F 55% 29.28 in 8.0 mi SSE 3.5 mph - N/A   Ice Crystals
8:00 PM -11.9 °F -23.8 °F -24.0 °F 55% 29.25 in 8.0 mi East 4.6 mph - N/A   Mostly Cloudy
9:00 PM -11.0 °F -20.4 °F -22.0 °F 58% 29.24 in 8.0 mi South 3.5 mph - N/A   Overcast
10:00 PM -11.0 °F -20.4 °F -23.1 °F 55% 29.23 in 10.0 mi South 3.5 mph - N/A   Mostly Cloudy
11:00 PM -11.0 °F - -23.1 °F 55% 29.22 in 10.0 mi Calm Calm - N/A Snow Light Snow